Weather History for Memphis, TN

Change the Weather History Date:

Sunday, March 31, 2013

  Actual Average Record
Temperature  
Mean Temperature 57 °F 58 °F  
Max Temperature 64 °F 69 °F 85 °F (1946)
Min Temperature 49 °F 48 °F 26 °F (1923)
Degree Days  
Heating Degree Days 8 8  
Month to date heating degree days 506 359  
Since 1 July heating degree days 2704 2808  
Cooling Degree Days 0 1  
Month to date cooling degree days 2 17  
Year to date cooling degree days 11 20  
Growing Degree Days 7 (Base 50)    
Moisture  
Dew Point 54 °F    
Average Humidity 86    
Maximum Humidity 100    
Minimum Humidity 72    
Precipitation  
Precipitation 0.01 in 0.19 in 2.42 in (1890)
Month to date precipitation 3.38 5.16  
Year to date precipitation 16.95 13.53  
Snow  
Snow 0.00 in 0.00 in T in (1953)
Month to date snowfall T 0.4  
Since 1 July snowfall 0.9 3.8  
Snow Depth 0.00 in    
Sea Level Pressure  
Sea Level Pressure 29.92 in    
Wind  
Wind Speed 4 mph (WSW)    
Max Wind Speed 18 mph    
Max Gust Speed 21 mph    
Visibility 6 miles    
Events Fog , Rain    
T = Trace of Precipitation, MM = Missing Value Source: NWS Daily Summary

Daily Weather History Graph

Daily Weather History Graph

Search for Another Location

Airport:

Trip Planner

Search our weather history database for the weather conditions in past years. The results will help you decide how hot, cold, wet, or windy it might be!

Date:

Astronomy

Mar. 31, 2013 Rise Set
Actual Time 6:47 AM CDT 7:20 PM CDT
Civil Twilight 6:22 AM CDT 7:46 PM CDT
Nautical Twilight 5:52 AM CDT 8:16 PM CDT
Astronomical Twilight 5:21 AM CDT 8:46 PM CDT
Moon No Moon Rise 9:45 AM CDT (3/31)
Length of Visible Light 13h 23m
Length of Day
12h 32m
Waning Gibbous, 77% of the Moon is Illuminated
Mar 31
Waning Gibbous
Apr 2
Last Quarter
Apr 10
New
Apr 18
First Quarter
Apr 25
Full

Hourly Weather History & Observations

Time (CDT) Temp. Dew Point Humidity Pressure Visibility Wind Dir Wind Speed Gust Speed Precip Events Conditions
12:54 AM 55.9 °F 55.0 °F 97% 29.96 in 0.5 mi SW 4.6 mph - N/A   Overcast
1:54 AM 55.9 °F 55.0 °F 97% 29.94 in 0.5 mi South 4.6 mph - N/A   Mist
2:54 AM 55.0 °F 55.0 °F 100% 29.91 in 0.5 mi South 6.9 mph - N/A   Overcast
3:27 AM 55.4 °F 55.4 °F 100% 29.91 in 0.2 mi SSW 5.8 mph - N/A Fog Fog
3:44 AM 55.4 °F 55.4 °F 100% 29.90 in 0.2 mi South 6.9 mph - N/A Fog Fog
3:54 AM 55.0 °F 54.0 °F 96% 29.89 in 0.2 mi SSW 9.2 mph - N/A Fog Fog
4:16 AM 55.4 °F 55.4 °F 100% 29.90 in 2.0 mi SSW 6.9 mph - N/A   Overcast
4:54 AM 55.9 °F 55.0 °F 97% 29.89 in 1.0 mi SSW 4.6 mph - N/A   Overcast
5:38 AM 57.2 °F 55.4 °F 94% 29.89 in 0.5 mi SSW 6.9 mph - N/A   Overcast
5:54 AM 57.0 °F 55.9 °F 96% 29.88 in 0.5 mi SSW 5.8 mph - N/A   Overcast
6:54 AM 57.9 °F 57.0 °F 97% 29.88 in 0.5 mi Calm Calm - N/A   Overcast
7:54 AM 57.9 °F 57.0 °F 97% 29.90 in 0.5 mi Calm Calm - N/A   Overcast
8:44 AM 60.8 °F 57.2 °F 88% 29.91 in 2.0 mi West 3.5 mph - N/A   Mostly Cloudy
8:54 AM 60.1 °F 57.0 °F 90% 29.91 in 2.0 mi West 4.6 mph - N/A   Mostly Cloudy
9:01 AM 60.8 °F 57.2 °F 88% 29.91 in 10.0 mi WSW 4.6 mph - N/A   Mostly Cloudy
9:13 AM 60.8 °F 57.2 °F 88% 29.91 in 8.0 mi WSW 5.8 mph - N/A   Mostly Cloudy
9:54 AM 63.0 °F 55.9 °F 78% 29.92 in 8.0 mi West 10.4 mph - N/A   Mostly Cloudy
10:35 AM 64.4 °F 57.2 °F 77% 29.93 in 10.0 mi NW 9.2 mph - 0.00 in   Scattered Clouds
10:54 AM 59.0 °F 55.0 °F 87% 29.95 in 8.0 mi NW 15.0 mph - 0.00 in   Mostly Cloudy
11:07 AM 57.2 °F 55.4 °F 94% 29.96 in 8.0 mi NW 13.8 mph - N/A   Overcast
11:15 AM 57.2 °F 55.4 °F 94% 29.96 in 2.5 mi NW 8.1 mph - N/A   Overcast
11:36 AM 57.2 °F 55.4 °F 94% 29.95 in 1.0 mi NNW 10.4 mph 19.6 mph 0.00 in Rain Light Rain
11:54 AM 59.0 °F 57.0 °F 93% 29.96 in 1.0 mi NW 8.1 mph - 0.01 in Rain Light Rain
12:12 PM 57.2 °F 55.4 °F 94% 29.98 in 1.0 mi NNW 10.4 mph - 0.00 in   Overcast
12:41 PM 57.2 °F 53.6 °F 88% 29.95 in 10.0 mi NE 6.9 mph - 0.00 in Rain Light Rain
12:54 PM 57.9 °F 54.0 °F 87% 29.93 in 10.0 mi NE 10.4 mph - 0.00 in   Overcast
1:28 PM 59.0 °F 55.4 °F 88% 29.92 in 10.0 mi ENE 5.8 mph - N/A   Mostly Cloudy
1:54 PM 59.0 °F 53.1 °F 81% 29.93 in 10.0 mi NE 4.6 mph - N/A   Mostly Cloudy
2:13 PM 60.8 °F 53.6 °F 77% 29.92 in 10.0 mi ESE 5.8 mph - N/A   Overcast
2:54 PM 62.1 °F 54.0 °F 75% 29.91 in 10.0 mi ENE 5.8 mph - N/A   Overcast
3:35 PM 60.8 °F 53.6 °F 77% 29.90 in 10.0 mi NE 6.9 mph - N/A   Overcast
3:54 PM 62.1 °F 53.1 °F 72% 29.90 in 10.0 mi East 4.6 mph - N/A   Mostly Cloudy
4:42 PM 60.8 °F 53.6 °F 77% 29.90 in 10.0 mi ENE 3.5 mph - N/A   Mostly Cloudy
4:54 PM 61.0 °F 53.1 °F 75% 29.90 in 10.0 mi Calm Calm - N/A   Mostly Cloudy
5:54 PM 63.0 °F 53.1 °F 70% 29.90 in 10.0 mi Calm Calm - N/A   Mostly Cloudy
6:34 PM 62.6 °F 51.8 °F 68% 29.91 in 10.0 mi Calm Calm - N/A   Scattered Clouds
6:54 PM 61.0 °F 52.0 °F 72% 29.90 in 10.0 mi Calm Calm - N/A   Scattered Clouds
7:54 PM 57.9 °F 52.0 °F 81% 29.92 in 10.0 mi Calm Calm - N/A   Scattered Clouds
8:54 PM 55.0 °F 51.1 °F 86% 29.93 in 10.0 mi Calm Calm - N/A   Partly Cloudy
9:54 PM 53.1 °F 48.9 °F 86% 29.94 in 10.0 mi Calm Calm - N/A   Partly Cloudy
10:54 PM 50.0 °F 48.2 °F 94% 29.94 in 10.0 mi Calm Calm - N/A   Partly Cloudy
11:54 PM 50.0 °F 48.0 °F 93% 29.94 in 10.0 mi WNW 3.5 mph - N/A   Partly Cloudy